This is the latest recevied weather packets stored in our database for station/object K1BWE-13. If no packets are shown the sender has not sent any weather packets the latest 10 day(s).
| Time | Temp. | Humidity | Pressure | Rain* | Wind** | Luminosity | Snow |
|---|---|---|---|---|---|---|---|
| 1788149099 | 85° F | 44% | 762.8 mmHg | 0 in | - | 0 W/m² | - |
| 1788148796 | 85° F | 44% | 762.7 mmHg | 0 in | - | 0 W/m² | - |
| 1788148496 | 86° F | 44% | 762.5 mmHg | 0 in | - | 0 W/m² | - |
| 1788148191 | 86° F | 44% | 762.4 mmHg | 0 in | - | 0 W/m² | - |
| 1788147886 | 85° F | 45% | 762.3 mmHg | 0 in | - | 0 W/m² | - |
| 1788147581 | 85° F | 46% | 762.2 mmHg | 0 in | - | 0 W/m² | - |
| 1788147276 | 86° F | 45% | 762.4 mmHg | 0 in | - | 0 W/m² | - |
| 1788146971 | 86° F | 44% | 762.1 mmHg | 0 in | - | 0 W/m² | - |
| 1788146666 | 86° F | 44% | 762.2 mmHg | 0 in | - | 0 W/m² | - |
| 1788146360 | 87° F | 44% | 762.1 mmHg | 0 in | - | 0 W/m² | - |
| 1788146055 | 86° F | 46% | 762.1 mmHg | 0 in | - | 0 W/m² | - |
| 1788145749 | 87° F | 45% | 762 mmHg | 0 in | - | 0 W/m² | - |
| 1788145448 | 87° F | 44% | 761.8 mmHg | 0 in | - | 0 W/m² | - |
| 1788145147 | 87° F | 44% | 761.5 mmHg | 0 in | - | 0 W/m² | - |
| 1788144846 | 86° F | 48% | 761.5 mmHg | 0 in | - | 0 W/m² | - |
| 1788144542 | 86° F | 51% | 761.3 mmHg | 0 in | - | 0 W/m² | - |
| 1788144236 | 86° F | 50% | 761.2 mmHg | 0 in | - | 0 W/m² | - |
| 1788143936 | 87° F | 51% | 761.3 mmHg | 0 in | - | 0 W/m² | - |
| 1788143634 | 87° F | 49% | 761.1 mmHg | 0 in | - | 0 W/m² | - |
| 1788143330 | 88° F | 48% | 760.9 mmHg | 0 in | - | 0 W/m² | - |
| 1788143028 | 88° F | 45% | 761.1 mmHg | 0 in | - | 0 W/m² | - |
| 1788142723 | 89° F | 45% | 761.1 mmHg | 0 in | - | 0 W/m² | - |
| 1788142423 | 89° F | 47% | 760.9 mmHg | 0 in | - | 0 W/m² | - |
| 1788142119 | 89° F | 43% | 760.8 mmHg | 0 in | - | 0 W/m² | - |
| 1788141818 | 89° F | 43% | 760.7 mmHg | 0 in | - | 0 W/m² | - |
* Rain latest hour (hover to see other rain measurements)
** Current wind speed in m/s (hover to see current wind gust speed)